Dewpoint
37 35 35 36 27 23 19 16 16 18 26 23 30 46 49 52 52 51 52 52 52 54 55 57 59 59 58 58 57 58 57 58 61 59 56 56 55 55 55 55 55 55 55 56
33 33 37 36 25 21 17 16 18 25 24 23 35 44 48 50 50 51 51 52 51 51 53 56 58 58 58 57 57 57 57 58 59 58 57 56 56 56 55 55 55 55 55 56
33 35 33 32 21 18 16 14 17 21 22 27 30 33 43 47 51 51 52 52 51 50 52 52 57 57 58 57 57 57 57 57 58 57 57 57 56 56 55 55 55 54 54 55
35 31 28 24 21 17 14 18 21 21 14 17 18 18 28 41 47 50 50 51 51 50 50 52 55 57 57 57 57 57 58 58 58 58 57 56 54 53 54 54 55 55 55 55
30 24 23 19 19 17 15 21 21 21 16 16 18 5 14 35 44 47 49 51 51 51 50 50 54 56 58 58 58 58 58 58 58 59 58 56 55 55 55 55 54 55 55 55
28 29 25 24 23 18 23 21 20 20 19 9 17 7 4 29 38 43 50 51 51 51 50 51 52 55 57 59 59 59 59 59 59 60 59 57 56 55 54 54 54 54 55 55
24 27 27 24 19 22 20 17 17 14 13 10 13 12 4 16 32 40 46 51 52 52 52 52 53 55 56 57 59 59 59 59 60 60 59 58 57 56 55 54 54 53 54 54
21 19 26 26 21 18 17 16 15 13 9 8 12 12 9 13 21 38 43 48 51 52 53 53 53 54 56 56 58 58 58 58 58 60 59 59 59 57 56 55 55 54 53 54
23 23 31 25 25 20 16 13 16 12 10 7 9 10 12 21 28 30 34 42 48 51 52 52 53 53 55 56 57 58 58 58 58 57 59 59 59 58 57 56 55 55 54 53
31 22 31 25 23 22 16 17 11 12 6 3 6 6 6 18 25 30 27 30 33 40 45 48 50 52 54 56 57 58 58 58 58 58 58 59 58 58 58 57 55 55 54 54
33 26 27 24 23 20 18 16 16 15 13 6 3 5 25 26 26 26 25 25 26 27 29 31 33 37 44 52 56 57 57 57 57 58 59 58 58 58 58 56 56 55 55 54
32 29 24 23 28 29 24 19 17 11 14 15 8 4 25 25 24 24 24 23 24 24 25 26 27 28 30 33 37 41 49 55 57 58 58 58 58 58 57 56 56 56 55 55
32 28 20 19 22 24 23 23 19 17 19 16 9 10 23 24 23 22 22 21 21 22 23 24 24 25 26 28 31 34 38 41 42 48 57 57 58 57 57 56 56 55 55 55
33 31 25 16 20 23 21 23 19 17 13 13 16 19 23 22 22 20 20 19 19 19 19 21 22 24 24 25 27 30 32 36 39 43 48 56 57 57 57 57 56 55 55 55
27 28 30 31 32 29 27 23 21 19 17 13 14 19 23 20 21 18 18 17 16 16 17 17 19 21 22 23 24 26 28 31 35 39 43 45 49 56 58 57 57 56 56 56
22 26 28 28 31 26 26 24 23 22 20 20 22 21 18 18 19 17 15 13 12 12 14 15 17 19 20 22 23 24 26 29 34 37 40 42 46 49 53 57 57 57 56 56
21 23 26 25 30 25 24 23 22 20 17 21 20 21 17 17 18 16 13 11 11 10 11 13 15 17 19 21 23 23 25 28 32 35 36 38 40 43 45 47 50 55 56 56
23 22 25 25 29 22 21 18 17 18 15 15 16 15 15 14 15 12 11 9 9 9 11 13 14 16 18 20 22 23 26 27 29 30 30 32 34 37 41 43 44 46 49 52
25 22 23 22 23 22 21 19 19 21 21 14 14 12 11 14 12 11 9 8 9 9 11 12 14 15 17 17 19 23 25 24 26 25 26 28 30 34 39 41 41 43 45 46
24 24 21 21 20 17 19 18 19 21 22 14 14 12 9 14 18 14 8 8 8 9 9 10 12 14 14 16 18 22 22 23 23 22 23 26 28 32 37 40 41 42 43 44
11 13 19 20 19 19 17 19 22 23 20 9 9 7 7 14 10 7 6 7 8 8 8 10 10 11 13 14 18 18 21 22 21 21 23 25 26 29 35 38 40 41 41 41
9 12 16 17 18 17 16 19 22 16 7 6 6 6 6 6 6 5 6 7 7 7 7 8 9 10 12 14 14 16 19 19 19 20 21 23 24 26 30 35 37 39 39 39
10 10 13 16 17 15 16 14 15 8 6 5 6 11 15 6 5 8 8 6 6 7 7 9 10 11 11 12 13 14 15 17 19 19 20 21 23 24 26 32 34 36 37 37
13 8 11 8 7 12 13 12 11 7 5 6 7 7 5 4 5 6 6 7 7 7 8 9 11 10 10 11 12 13 14 17 18 18 18 19 20 22 25 29 32 34 35 36
12 10 10 9 8 8 11 11 9 6 6 6 6 6 5 6 6 6 6 6 7 8 9 11 9 10 10 11 12 13 15 16 17 17 17 18 19 21 23 26 28 31 33 35
10 9 6 0 4 6 7 12 9 7 6 6 5 5 7 7 6 6 7 7 8 9 10 9 10 10 11 12 13 14 15 16 16 16 16 17 19 20 22 23 26 28 31 33
Wind_Speed
11 9 21 37 35 30 21 23 25 4 7 11 10 15 21 16 14 19 19 21 20 23 18 21 23 23 23 23 23 21 19 15 14 12 13 12 14 11 11 12 14 13 13 12
8 15 21 35 24 25 17 26 10 7 8 8 9 14 17 22 24 27 29 23 22 19 22 20 23 23 23 23 23 21 21 17 13 13 10 7 10 6 8 11 13 14 15 14
10 16 16 28 26 25 14 30 15 21 12 8 12 2 5 8 8 12 15 12 15 21 22 22 22 23 22 21 22 23 22 20 16 13 12 7 7 5 6 8 10 12 15 16
11 4 24 26 20 25 19 17 22 22 18 16 2 13 8 9 11 17 17 19 22 21 20 20 19 22 23 24 21 22 21 21 19 17 17 17 13 12 10 11 12 15 13 15
7 18 21 16 11 15 9 17 19 14 11 12 4 3 7 10 18 18 20 21 21 22 24 25 24 22 17 17 18 20 21 20 19 16 17 16 14 14 9 9 16 16 13 14
12 5 7 4 9 7 18 17 13 9 5 12 6 6 9 18 25 18 20 22 23 22 23 21 19 17 18 15 16 18 21 21 20 19 18 21 18 16 15 13 16 17 14 14
17 8 5 7 14 7 16 25 9 5 5 5 1 11 11 9 18 25 30 27 26 25 24 23 24 24 21 22 21 20 21 24 24 23 22 19 16 20 20 18 17 18 17 11
9 15 4 5 6 11 10 10 12 11 14 13 4 13 8 6 9 7 17 25 23 23 25 26 27 26 26 26 26 25 24 22 18 19 21 20 17 15 17 19 16 18 17 17
10 3 3 5 3 3 6 9 4 12 2 6 5 4 4 7 10 14 8 2 13 18 21 24 25 25 24 24 26 25 23 21 18 19 19 19 19 19 19 16 17 17 15 15
3 8 4 2 2 4 5 10 9 3 12 8 5 6 9 3 5 13 14 14 15 13 8 6 2 10 14 17 20 21 23 24 25 23 20 22 22 22 21 18 20 18 16 17
6 3 2 2 0 5 4 5 3 7 5 16 9 12 1 2 4 6 10 13 15 15 15 14 14 13 10 7 8 12 14 19 22 21 22 23 22 21 19 18 18 19 16 18
5 2 6 4 3 1 2 2 4 14 8 2 7 9 2 5 5 6 8 11 13 15 15 16 17 17 17 15 13 9 6 4 8 14 17 21 22 19 19 21 20 18 21 19
8 1 10 1 7 3 5 5 4 5 3 10 12 7 3 6 8 9 9 12 13 15 17 17 19 19 18 17 16 14 14 11 10 9 11 15 19 19 22 23 22 19 20 20
5 1 3 15 12 1 6 7 6 5 7 7 7 5 9 6 5 7 9 10 11 13 15 15 18 18 17 17 16 15 14 14 14 11 8 7 16 18 21 22 22 22 22 22
3 2 1 2 3 3 3 9 10 10 6 7 5 8 14 10 8 5 7 8 10 13 15 15 16 16 16 17 17 16 15 15 16 13 11 10 11 9 17 20 20 20 21 23
13 3 0 3 4 5 6 7 5 9 6 4 7 7 8 7 8 7 6 8 9 11 12 14 15 15 16 16 16 17 16 16 15 14 12 14 13 12 11 10 18 21 22 21
10 8 1 5 2 4 9 12 9 5 4 6 16 6 21 11 9 6 5 6 7 9 11 12 13 14 15 16 15 17 17 15 15 14 14 15 15 15 13 12 11 7 14 17
1 3 3 2 5 12 4 2 1 6 4 3 4 9 7 9 8 9 6 5 5 8 10 11 12 13 14 14 15 16 14 15 15 15 16 16 16 16 16 15 12 12 11 11
3 2 0 2 7 6 3 6 7 7 6 11 8 7 4 8 8 2 4 5 5 7 8 10 11 12 12 13 15 15 13 13 13 16 18 19 18 18 16 14 14 13 12 13
4 5 1 2 4 7 1 3 3 2 14 15 11 11 8 10 10 5 2 4 5 8 9 11 12 11 11 14 15 15 14 14 14 17 18 18 18 17 16 15 15 9 8 12
1 2 5 6 5 9 0 5 2 7 7 11 10 10 9 9 3 1 3 4 6 7 10 11 12 12 12 14 14 13 13 12 16 17 17 17 17 18 17 16 13 11 12 12
8 8 6 4 5 11 7 5 6 2 5 8 6 6 6 5 3 2 2 5 7 9 10 10 10 11 12 13 14 14 13 15 16 16 16 17 17 18 17 17 15 14 12 12
7 8 2 10 6 3 13 3 3 6 8 7 8 7 7 4 3 2 3 8 11 14 14 14 15 16 13 13 14 16 16 17 17 18 18 17 17 17 17 17 16 14 11 11
6 5 6 2 6 13 12 5 8 7 8 10 6 7 5 4 1 2 3 6 7 8 9 10 12 16 19 18 18 16 17 16 17 18 18 17 17 19 16 15 14 13 12 12
4 11 7 9 13 5 16 17 18 13 12 12 9 7 6 5 3 3 4 6 6 8 9 10 11 12 14 15 17 17 18 17 17 17 17 16 14 16 18 15 14 14 14 14
13 12 14 14 11 6 5 21 23 24 22 19 15 10 7 7 6 4 5 6 7 8 8 10 11 13 16 16 16 16 14 15 16 17 16 16 17 15 15 17 18 16 19 21
Wind_Direction
125 196 163 166 172 165 164 171 170 156 162 123 154 149 169 172 152 168 174 173 176 176 168 172 174 175 172 179 177 177 175 181 172 172 165 170 183 180 188 188 183 183 179 173
155 201 173 166 156 149 144 148 144 84 109 104 147 164 168 174 188 181 178 182 182 175 170 171 178 179 176 177 174 173 182 189 181 173 175 165 169 173 192 192 189 183 179 178
154 166 160 150 139 143 148 161 150 146 114 70 131 136 170 200 180 193 199 192 180 183 185 189 170 177 181 184 178 177 184 189 189 181 156 117 115 126 178 193 198 195 185 182
124 170 141 146 150 145 149 159 140 146 146 162 6 191 232 201 200 200 194 191 191 190 196 196 185 186 189 190 183 181 183 188 191 179 184 188 190 194 199 199 200 202 196 188
96 135 135 117 152 142 149 153 144 150 134 132 195 149 213 185 210 207 207 201 201 198 194 201 195 195 192 186 184 185 181 188 191 189 188 193 193 200 192 195 198 202 204 205
84 98 94 102 92 116 135 123 105 88 107 198 181 189 211 197 213 206 210 206 204 200 201 201 202 193 195 188 189 183 187 193 192 191 195 198 202 198 200 203 205 205 207 210
96 47 30 75 98 96 134 143 131 132 176 187 205 199 223 227 216 203 204 205 204 200 200 197 196 197 191 192 196 193 189 196 192 196 196 200 204 199 209 210 206 206 207 208
118 133 18 6 103 156 153 159 145 154 195 193 131 214 210 285 263 242 211 202 199 198 201 204 202 198 197 196 196 202 203 202 197 196 200 195 200 205 207 207 205 211 208 211
120 107 356 77 87 151 167 173 150 129 45 172 201 261 283 42 49 12 2 207 210 203 201 205 205 203 198 198 201 202 208 208 204 202 196 196 194 201 210 208 212 212 210 211
32 117 11 354 56 45 150 146 155 118 168 187 216 222 209 155 333 355 8 16 9 23 33 25 235 212 207 204 200 200 202 205 207 205 198 201 201 203 209 206 214 214 211 210
359 128 150 78 327 146 126 164 111 125 158 194 178 222 171 255 354 348 7 21 19 19 21 22 25 31 50 101 186 201 209 209 207 205 206 210 213 212 210 208 212 215 208 208
358 37 131 163 149 28 117 182 136 185 192 178 208 230 58 105 72 57 37 29 29 26 26 26 27 29 34 37 46 49 57 191 252 235 223 213 212 213 210 212 215 209 210 208
343 354 155 177 301 231 232 205 149 114 101 183 188 227 120 110 81 51 51 32 32 28 25 25 28 28 26 23 21 27 30 22 5 359 234 221 221 211 209 213 218 210 211 210
313 53 132 200 227 57 191 180 176 176 210 186 207 193 197 157 115 58 46 35 32 33 29 24 26 21 18 17 17 16 12 7 360 356 350 260 225 222 223 220 214 210 209 212
54 133 174 162 8 351 298 200 198 207 209 225 249 210 181 162 141 92 52 38 35 27 22 20 18 15 12 12 9 7 4 358 353 350 350 342 328 296 234 229 228 228 222 219
348 146 303 175 20 23 250 253 256 217 198 213 169 212 152 131 119 96 61 46 32 18 11 9 10 8 7 3 1 358 356 352 348 350 349 342 335 330 330 263 227 222 223 224
4 359 109 218 24 59 271 241 217 198 202 171 218 193 162 162 156 139 92 50 26 8 359 1 3 357 353 352 352 350 345 345 351 353 355 353 350 342 338 330 328 285 239 232
25 32 338 214 118 212 231 76 306 240 216 197 135 140 151 144 125 120 84 47 18 354 352 349 351 348 344 346 349 342 344 351 351 357 352 349 346 339 333 328 321 314 308 298
215 36 241 242 224 306 257 203 182 198 265 186 169 149 115 120 115 159 60 18 3 348 341 343 339 338 340 348 344 340 346 351 358 356 346 340 336 330 326 322 317 309 306 297
115 65 38 313 256 243 342 173 151 153 260 176 163 162 154 158 198 176 4 2 354 346 347 341 341 339 344 346 344 341 345 348 354 347 335 329 326 322 318 315 315 306 297 291
167 127 225 242 275 287 265 158 151 190 260 152 149 153 156 182 156 100 4 360 356 350 346 345 343 343 342 340 341 337 337 347 339 332 328 323 324 322 316 314 309 306 308 300
189 183 206 155 217 269 148 117 198 185 97 135 129 147 154 156 155 119 21 351 345 342 343 348 340 334 333 341 343 334 333 336 330 328 324 322 320 319 315 313 310 307 303 299
232 206 191 203 218 198 192 208 197 154 154 173 169 172 164 195 189 108 359 341 344 340 341 343 339 330 337 342 341 330 327 330 329 328 325 320 317 314 309 307 307 303 297 290
234 178 224 290 221 214 199 196 175 176 166 164 164 166 177 198 232 311 351 319 338 326 328 332 327 323 324 330 326 322 324 325 326 324 321 320 318 316 317 313 303 298 290 282
216 162 203 254 264 256 239 207 186 169 152 151 153 169 187 192 233 266 290 308 322 315 323 322 318 314 311 314 313 316 315 320 321 318 315 316 314 314 311 306 302 294 286 278
189 192 192 230 208 184 200 200 178 169 173 170 166 173 185 190 210 240 274 291 302 310 317 317 314 311 310 310 308 306 307 310 309 311 314 315 315 313 311 311 306 296 291 289